Reflectivity
12 17 -14 14 -5 3 6 3 3 1 -5 2 -20 -20 17 -20 -2 -20 -20 -17 3 -20 1 -20 -15 3 -2 5 -18 -20 23 -1 -20 -20 -16 -8 -18 2 -20 -20 -20 -20 -20 -20 -8
11 15 11 9 -14 -20 7 3 -1 -20 -20 -20 -20 -20 -14 5 23 -20 -20 -20 13 16 7 7 -1 -20 12 24 23 7 18 -20 -20 -20 -20 3 1 5 -20 -20 -20 -20 -20 4 1
-15 10 2 6 11 -20 -20 8 -17 -20 -20 -20 -20 -20 -20 15 -2 -20 -20 8 25 27 -14 -5 14 15 7 17 19 -10 -20 -20 -20 -20 -20 7 11 -18 -8 -20 -20 -20 -20 -14 10
8 -20 5 3 14 -20 -20 3 6 -13 -20 -20 -20 -20 -20 -20 -20 -20 -20 -20 -4 19 29 -2 21 11 2 -4 9 15 -18 -20 -20 -20 -20 -10 7 -20 -18 -20 -20 -20 -20 -19 19
18 2 -18 10 7 -13 -16 -20 4 -11 -20 -20 -20 -20 -20 -20 -20 -20 -20 -20 -11 14 25 27 22 1 -3 8 10 19 18 -20 -14 -20 -20 -20 14 -10 -20 -20 -20 -20 -20 16 -16
13 0 -18 -20 6 -6 -20 13 -19 -20 -20 -20 -20 -20 -20 -20 -20 -20 -20 -20 13 21 24 28 28 -17 -12 -8 5 9 -8 -12 10 -20 -20 -20 -7 8 -20 -20 -20 -20 -20 -7 6
13 11 -2 3 10 -20 8 -18 -20 -20 -20 -20 -20 -20 -20 -20 -20 -20 -20 -20 16 34 22 35 17 22 -20 -14 -20 23 -20 -17 -3 17 12 -4 -1 8 -18 -20 -20 -20 -20 -20 -20
13 5 15 7 -7 4 -20 15 3 -20 -20 -20 -20 -20 -20 -20 -20 -20 -20 -20 23 24 18 26 25 14 -6 -20 -11 11 9 7 3 -19 -16 -7 -11 -20 -11 -20 -20 -20 -20 -20 -20
10 15 12 4 -15 9 -20 -14 -20 -20 -20 -20 -20 -20 -20 -20 -20 -20 -20 -1 19 15 9 10 34 23 -3 -19 10 12 -20 -20 14 -13 0 -20 -9 2 22 -20 -20 -20 -20 -20 -20
11 11 13 9 6 11 -14 -5 -20 -20 -20 -20 -20 -20 -20 -20 -20 -20 -20 -3 8 21 13 25 40 29 13 6 -13 -5 6 10 9 5 6 -20 -18 6 16 -5 -19 -20 -20 -20 -20
10 7 7 11 10 10 0 -20 -20 -20 -20 -20 -20 -20 -20 -20 -20 -20 -18 -1 15 21 16 25 13 -10 -20 -20 -20 4 6 9 7 -7 -17 -20 -20 -20 -8 -18 0 2 -20 -20 -20
-1 10 5 8 12 -7 -20 -20 -20 -20 -20 -20 -20 -20 -20 -20 -20 -18 -11 -7 8 25 32 31 13 12 8 -3 -20 -5 9 10 -20 -20 -0 -18 -20 -20 -20 -19 -20 -17 -20 -20 -20
15 5 12 14 8 -20 -20 -20 -20 -20 -20 -20 -20 -20 -20 -20 -6 -0 -6 2 1 10 16 12 23 13 -5 -2 -14 -6 -10 2 -20 -20 -3 -16 -20 -20 -20 -20 -20 -3 11 -19 -20
10 12 12 12 -18 -20 -20 -20 -20 -20 -16 -3 -15 -11 -17 -20 8 34 17 3 -7 17 23 12 20 -18 -11 5 -10 -14 -20 -20 -20 -20 -15 -20 -20 -20 -20 -20 -1 -20 -20 -20 -20
10 12 12 7 -20 -20 -20 -20 -20 -20 2 15 -2 -20 -20 6 -8 27 21 3 -10 17 16 15 23 24 -3 0 -20 -20 -20 -20 -20 -19 -20 -20 -14 -20 -20 -20 -20 -20 -20 -20 -9
13 11 9 -20 -20 -20 -20 -20 -20 -20 -16 10 4 -2 -20 -20 -20 -18 13 18 10 -1 -15 14 22 30 -13 15 -20 -20 -20 -20 -15 -2 3 -20 -14 -20 -20 -20 -20 -20 -20 -20 -16
-9 -14 -17 -20 -20 -20 -20 -20 -20 -20 -20 9 -1 1 -19 -18 -14 -17 4 -12 -2 16 36 22 34 15 -11 8 -20 -20 -20 9 0 2 -12 -20 -20 -20 -20 -20 -20 -20 -20 -20 -20
-20 -20 -20 -20 -20 -20 -20 -20 -20 -19 -17 2 6 -20 -13 -20 3 8 -17 -20 -17 -20 9 15 6 31 7 -5 -20 -3 -20 -20 -20 -1 -18 -20 -20 -20 -20 -20 -20 -20 -20 -20 -20
-20 -20 -20 -20 -20 -20 -20 -20 -20 -20 -20 -19 8 21 16 11 -12 2 6 -3 -20 -16 23 -17 -10 13 -17 -20 -20 -20 6 -20 -20 -20 -20 -20 -20 -20 -20 -20 -20 -20 -20 -20 -20
-20 -20 -20 -20 -20 -20 -20 -20 -20 -20 -20 -20 -20 -20 -3 8 -2 -15 -20 -20 -20 -20 -20 -20 2 -14 2 -7 -17 -6 -20 -9 -19 -20 -20 -20 -20 -20 -20 -20 -20 -20 -20 -20 -20
-20 -20 -20 -20 -20 -20 -20 -20 -20 -20 -20 -20 -20 -14 -19 -20 -20 -20 -1 7 -15 -20 -20 -20 -15 23 -9 10 -2 -20 -20 -20 -20 -20 -20 -20 -20 -20 -20 -20 -20 -20 -20 -20 -20
-20 -12 -20 -20 -16 -20 -20 -20 -20 -20 -20 -20 -20 -20 -20 -20 -20 -20 -20 -16 25 -19 -20 -20 -20 5 16 -20 -20 -20 -20 -20 -9 -19 -20 -20 -20 -20 -20 -20 -20 -20 -20 -20 -20
-20 -14 -16 -20 -17 -20 -20 -20 -20 -20 -20 -20 -20 -20 -20 -20 -20 -20 -20 -20 -20 -20 -20 -20 -20 1 -13 -20 -20 -20 -20 -20 -20 -20 -20 -20 -20 -20 -20 -20 -20 -20 -20 -20 -20
-20 -20 -20 -20 -20 -20 -20 -20 -20 -20 -20 -20 -20 -20 -20 -20 -20 -20 -20 -20 -20 -20 -20 -20 -20 -20 -20 -20 -20 -20 -20 -20 -20 -19 -20 -20 -20 -20 -20 -20 -20 -20 -20 -20 -20
-20 -20 -20 -20 -20 -20 -20 -20 -20 -20 -20 -20 -20 -20 -20 -20 -20 -20 -20 -20 -20 -20 -20 -20 -20 -20 -20 -20 -20 -20 -20 -20 -20 -20 -20 -15 -20 -20 -20 -20 -20 -20 -20 -20 -20
-20 -20 -20 -20 -20 -20 -20 -20 -20 -20 -20 -20 -20 -20 -20 -20 -20 -20 -20 -20 -20 -20 -20 -20 -20 -20 -20 -20 -20 -20 -20 -20 -20 -20 -20 -20 -20 -20 -20 -20 -20 -20 -20 -20 -20
-20 -20 -20 -20 -20 -20 -20 -20 -20 -20 -20 -20 -20 -20 -20 -20 -20 -20 -20 -20 -20 -20 -20 -20 -20 -20 -20 -20 -20 -20 -20 -20 -20 -20 -20 -20 -20 -20 -20 -20 -20 -20 -20 -20 -20
Wind_Speed
15 16 15 14 15 15 18 15 13 11 9 6 4 4 5 4 4 6 11 6 5 7 3 5 8 6 5 9 7 4 11 16 23 16 10 2 5 1 2 1 6 6 4 5 8
14 16 15 15 14 15 17 15 13 11 8 3 0 0 3 1 8 11 6 9 10 13 8 8 13 10 8 10 8 11 15 24 21 15 8 6 2 2 3 6 5 3 6 5 11
15 13 16 15 13 13 14 13 11 11 8 5 3 2 2 1 8 3 3 9 16 14 8 3 10 11 8 10 11 14 19 17 13 16 13 8 4 1 5 6 6 9 10 4 9
12 13 15 14 14 11 11 12 10 9 7 5 3 2 4 3 3 2 12 15 14 12 5 5 10 12 11 13 16 14 15 12 10 10 8 12 7 2 3 6 3 7 8 1 8
12 12 13 14 13 10 9 9 8 7 6 4 2 4 2 3 3 5 13 11 9 11 7 11 15 16 16 15 15 15 16 13 9 6 8 9 9 2 3 4 2 5 11 2 3
15 12 12 14 13 12 9 5 5 6 5 4 3 2 2 2 4 5 9 7 7 9 6 6 10 11 14 12 16 14 5 18 11 6 4 6 7 2 3 4 2 6 8 6 3
14 12 10 13 14 11 11 8 2 3 4 2 2 2 2 3 4 7 3 2 2 5 4 6 2 10 11 11 6 13 7 8 12 10 6 1 9 13 6 6 10 7 5 6 6
15 12 11 10 14 12 10 10 2 1 1 2 2 2 2 1 5 4 2 2 2 2 12 6 4 2 6 5 11 10 16 10 13 11 3 8 21 24 13 8 12 8 7 4 6
14 13 12 10 13 12 9 10 3 3 2 1 2 3 1 4 2 4 4 3 4 4 7 5 1 5 6 13 11 13 12 21 10 14 7 13 12 12 10 13 14 11 7 5 6
13 14 13 10 13 12 7 4 6 2 2 1 1 4 1 3 5 2 2 3 2 6 4 7 2 5 10 13 14 14 11 13 13 11 10 13 17 3 3 8 18 13 10 8 4
13 13 13 12 12 8 2 3 4 4 3 2 2 2 1 7 3 1 2 0 4 5 5 6 1 8 16 15 4 14 10 11 9 8 13 12 13 13 7 9 15 17 14 13 8
13 13 14 13 11 3 1 2 2 3 3 1 2 2 2 2 2 1 4 1 3 7 8 3 2 9 10 10 11 14 14 13 8 12 12 10 14 13 13 14 12 15 18 16 12
13 13 13 13 5 2 2 1 4 3 1 2 0 1 1 2 1 3 4 4 1 8 7 7 3 12 13 13 13 14 16 12 10 11 12 5 13 17 17 16 14 14 18 17 17
13 13 12 2 3 2 2 4 3 2 2 3 1 3 1 2 2 3 6 2 1 7 9 5 8 12 10 15 13 13 10 13 11 12 5 11 4 11 18 17 20 19 18 21 17
13 13 7 4 4 2 2 5 3 3 1 2 1 2 1 4 2 4 5 3 3 4 4 3 10 12 16 14 10 5 12 10 9 10 4 8 6 2 6 20 20 18 19 18 17
14 9 5 3 1 1 5 3 2 3 5 1 0 2 0 4 3 2 1 4 1 6 6 5 11 4 9 5 2 13 13 9 5 3 7 11 11 4 5 11 12 17 19 16 14
12 1 6 3 3 5 3 2 1 4 2 3 2 1 3 1 3 4 1 3 2 6 3 5 6 1 4 10 10 9 17 5 5 6 5 1 9 11 10 9 7 10 17 19 15
5 8 4 1 2 4 2 1 3 1 2 5 3 5 2 3 2 1 4 1 1 3 3 3 4 5 3 5 7 15 10 3 7 5 5 3 7 3 2 2 2 6 7 9 16
4 3 2 1 2 0 2 0 2 3 2 4 9 5 3 3 3 3 2 4 2 1 2 4 4 2 6 2 2 4 6 3 5 1 3 4 4 10 4 3 4 5 5 10 10
3 3 2 2 1 0 1 1 2 2 1 2 1 1 4 6 5 4 4 4 5 2 2 2 5 2 5 1 4 2 9 4 0 5 5 3 5 3 5 7 6 3 6 7 7
3 4 1 1 2 1 1 1 2 4 4 2 1 5 2 2 3 4 3 0 3 3 5 2 2 4 8 4 8 5 5 2 0 3 3 2 3 4 4 4 7 7 4 4 5
3 3 2 1 2 1 1 2 2 3 3 2 2 2 4 3 1 2 2 1 12 6 6 3 5 5 2 2 1 1 2 11 6 6 0 4 4 6 3 2 4 6 4 2 3
3 3 2 1 2 2 1 1 1 2 2 2 1 1 1 5 2 3 3 2 8 7 5 5 3 6 4 3 2 6 8 4 2 2 7 7 3 2 2 3 1 4 3 4 6
3 4 3 2 2 3 2 2 2 1 1 1 1 3 5 4 1 5 3 2 5 2 2 3 4 4 6 3 4 7 14 14 10 5 11 14 13 7 9 10 6 10 4 5 9
1 2 1 4 4 2 1 1 2 2 2 2 1 3 1 4 4 5 2 4 3 3 1 4 1 2 1 2 2 3 9 17 14 17 16 10 19 18 18 18 14 8 6 7 10
3 4 2 3 1 3 1 2 2 1 3 1 3 3 1 2 3 4 6 4 2 4 3 1 2 1 2 2 4 7 11 13 18 20 22 24 27 19 16 11 12 15 9 7 12
2 1 1 1 3 4 2 2 3 1 1 4 2 1 5 4 5 4 2 2 2 3 5 3 5 4 1 1 4 9 18 17 11 12 14 18 19 14 13 14 12 14 14 14 15
Wind_Direction
345 345 344 350 350 349 349 348 347 345 333 324 288 251 233 286 300 241 242 228 225 275 291 244 208 194 208 206 206 196 210 213 203 203 189 130 178 81 341 285 63 44 10 341 141
350 348 341 346 355 355 350 0 4 3 3 18 270 220 209 138 272 256 267 246 254 261 253 217 191 178 208 204 192 199 213 217 216 209 155 127 146 351 205 146 81 70 49 26 141
348 350 340 346 355 354 350 1 14 22 32 48 66 97 137 116 262 208 340 290 225 220 280 283 199 189 216 192 193 208 210 207 201 207 159 128 112 348 163 94 51 4 348 16 156
345 349 343 343 342 353 357 357 19 35 42 51 86 123 124 194 263 29 332 325 231 174 248 186 193 180 202 195 191 206 213 192 153 152 169 140 125 129 339 101 86 18 357 155 179
350 344 347 336 336 343 347 354 17 25 33 29 44 93 226 214 271 357 336 355 194 173 200 213 186 184 196 196 186 221 188 200 147 132 110 144 117 86 227 150 148 18 40 110 179
341 347 345 337 335 334 333 359 4 22 34 46 63 3 289 252 354 325 335 51 27 185 182 208 202 186 197 195 193 183 161 196 158 136 115 216 160 142 142 169 241 353 26 53 236
335 340 343 339 330 327 328 327 360 8 11 49 33 328 258 20 329 332 327 82 62 165 211 211 9 224 165 167 180 177 123 197 183 175 174 162 230 233 227 260 286 303 340 19 40
334 336 331 343 325 320 319 323 326 253 300 59 31 300 292 350 329 28 34 75 347 16 254 312 309 237 203 132 168 163 194 188 183 180 135 181 227 224 217 265 276 287 290 324 7
335 336 331 343 323 321 320 320 263 181 216 28 269 307 134 328 356 31 3 135 157 279 268 267 137 243 160 166 161 186 184 206 168 203 156 183 230 241 271 256 260 264 273 298 331
336 334 330 340 319 310 328 20 100 138 156 180 206 235 99 345 331 5 60 55 150 295 223 209 169 191 182 179 181 173 199 179 191 188 192 210 240 149 166 266 244 253 258 257 295
338 328 331 330 312 307 324 191 172 170 223 354 69 1 21 323 262 26 42 107 128 253 173 173 163 183 177 190 192 144 158 175 157 169 199 220 227 233 231 242 246 253 254 244 254
333 331 329 320 312 94 188 220 44 26 143 176 295 276 257 326 289 142 339 251 198 196 164 153 159 207 154 160 165 175 176 177 157 176 210 204 230 235 230 231 230 249 251 238 241
331 328 325 320 95 163 226 157 123 206 249 118 358 305 298 288 349 304 318 112 193 166 240 132 145 172 174 179 168 173 186 170 160 152 201 215 245 237 236 234 230 241 246 239 234
330 326 322 346 181 162 201 151 159 241 201 52 110 96 259 275 171 146 228 255 91 154 204 157 154 169 178 174 168 170 196 170 151 170 210 203 270 219 218 221 227 230 235 230 213
327 321 311 226 114 174 105 158 151 231 51 32 20 46 11 303 348 177 218 103 153 145 185 115 151 175 197 172 191 124 166 190 189 203 218 192 249 231 237 226 231 236 239 246 212
325 321 157 137 164 51 147 150 233 226 58 143 1 120 210 356 26 328 81 150 226 82 64 97 112 187 186 128 191 143 137 105 112 202 237 224 222 248 223 239 246 228 243 236 220
338 180 160 165 115 156 162 234 214 23 137 131 123 182 127 30 75 343 24 99 133 154 102 109 119 342 244 132 146 187 152 126 180 208 233 36 220 257 283 242 258 245 233 232 221
45 115 114 1 161 151 208 231 81 337 196 127 135 130 122 151 79 232 143 72 25 53 113 136 155 151 199 161 184 187 178 200 195 196 183 177 220 244 315 334 339 263 258 254 237
148 99 97 46 145 271 255 1 101 208 162 142 151 183 174 224 210 200 210 133 305 31 130 154 83 168 233 50 235 185 204 22 94 48 227 146 237 264 316 248 246 256 238 242 230
161 147 82 328 275 44 255 67 128 218 197 235 119 6 125 135 166 235 203 141 128 204 280 131 112 260 131 230 71 244 143 172 290 172 215 150 255 169 32 12 357 315 279 248 228
168 157 68 311 269 201 352 220 191 196 226 215 149 120 109 136 165 179 148 146 129 224 232 201 98 138 149 235 200 155 187 124 124 331 273 175 163 149 96 350 334 354 336 274 217
176 143 49 346 227 267 219 179 152 150 177 232 298 58 142 196 229 190 141 74 172 206 171 185 122 120 98 84 355 206 230 224 234 185 59 325 239 170 208 311 307 359 19 47 166
149 104 94 11 252 188 163 181 251 163 181 174 164 292 140 152 162 288 114 113 182 204 176 189 132 131 137 190 207 229 207 216 233 19 202 236 175 133 195 208 160 29 18 119 146
175 133 138 196 296 289 148 102 131 109 95 282 8 194 169 136 69 149 140 118 173 264 133 203 168 233 199 103 134 200 212 209 199 214 241 228 257 210 219 220 262 312 282 201 175
354 105 12 166 190 187 207 87 125 95 5 18 118 37 272 137 138 133 140 140 130 133 77 329 46 78 7 87 163 245 223 211 212 226 237 259 243 246 261 277 302 320 299 235 207
163 159 136 94 125 180 341 103 97 62 320 52 94 28 255 69 20 155 154 188 173 146 149 94 115 98 287 218 245 262 243 230 231 238 252 254 263 264 252 256 263 274 274 240 225
136 104 212 114 156 194 135 131 117 307 114 43 336 115 78 36 345 332 334 75 122 187 153 173 150 166 224 266 257 263 242 224 225 231 238 247 254 276 259 258 262 272 265 246 240